SCP
0 0 0 0 0 0 0 0 0 0 0 0 0 0 0 0 0 0 0 0 0 0 0 0 0 0 0 0 0 0 0 0 0 0 0 0 0 0 0 0 0 0 0
0 0 0 0 0 0 0 0 0 0 0 0 0 0 0 0 0 0 0 0 0 0 0 0 0 0 0 0 0 0 0 0 0 0 0 0 0 0 0 0 0 0 0
0 0 0 0 0 0 0 0 0 0 0 0 0 0 0 0 0 0 0 0 0 0 0 0 0 0 0 0 0 0 0 0 0 0 0 0 0 0 0 0 0 0 0
0 0 0 0 0 0 0 0 0 0 0 0 0 0 0 0 0 0 0 0 0 0 0 0 0 0 0 0 0 0 0 0 0 0 0 0 0 0 0 0 0 0 0
0 0 0 0 0 0 0 0 0 0 0 0 0 0 0 0 0 0 0 0 0 0 0 0 0 0 0 0 0 0 0 0 0 0 0 0 0 0 0 0 0 0 0
0 0 0 0 0 0 0 0 0 0 0 0 0 0 0 0 0 0 0 0 0 0 0 0 0 0 0 0 0 0 0 0 0 0 0 0 0 0 0 0 0 0 0
0 0 0 0 0 0 0 0 0 0 0 0 0 0 0 0 0 0 0 0 0 0 0 0 0 0 0 0 0 0 0 0 0 0 0 0 0 0 0 0 0 0 0
0 0 0 0 0 0 0 0 0 0 0 0 0 0 0 0 0 0 0 0 0 0 0 0 0 0 0 0 0 0 0 0 0 0 0 0 0 0 0 0 0 0 0
0 0 0 0 0 0 0 0 0 0 0 0 0 0 0 0 0 0 0 0 0 0 0 0 0 0 0 0 0 0 0 0 0 0 0 0 0 0 0 0 0 0 0
0 0 0 0 0 0 0 0 0 0 0 0 0 0 0 0 0 0 0 0 0 0 0 0 0 0 0 0 0 0 0 0 0 0 0 0 0 0 0 0 0 0 0
0 0 0 0 0 0 0 0 0 0 0 0 0 0 0 0 0 0 0 0 0 0 0 0 0 0 0 0 0 0 0 0 0 0 0 0 0 0 0 0 0 0 0
0 0 0 0 0 0 0 0 0 0 0 0 0 0 0 0 0 0 0 0 0 0 0 0 0 0 0 0 0 0 0 0 0 0 0 0 0 0 0 0 0 0 0
0 0 0 0 0 0 0 0 0 0 0 0 0 0 0 0 0 0 0 0 0 0 0 0 0 0 0 0 0 0 0 0 0 0 0 0 0 0 0 0 0 0 0
0 0 0 0 0 0 0 0 0 0 0 0 0 0 0 0 0 0 0 0 0 0 0 0 0 0 0 0 0 0 0 0 0 0 0 0 0 0 0 0 0 0 0
0 0 0 0 0 0 0 0 0 0 0 0 0 0 0 0 0 0 0 0 0 0 0 0 0 0 0 0 0 0 0 0 0 0 0 0 0 0 0 0 0 1 1
0 0 0 0 0 0 0 0 0 0 0 0 0 0 0 0 0 0 0 0 0 0 0 0 0 0 0 0 0 0 0 0 0 0 0 0 0 0 0 0 0 0 0
0 0 0 0 0 0 0 0 0 0 0 0 0 0 0 0 0 0 0 0 0 0 0 0 0 0 0 0 0 0 0 0 0 0 0 0 0 0 0 0 0 0 0
0 0 0 0 0 0 0 0 0 0 0 0 0 0 0 0 0 0 0 0 0 0 0 0 0 0 0 0 0 0 0 0 0 0 0 0 0 0 0 0 0 0 0
0 0 0 0 0 0 0 0 0 0 0 0 0 0 0 0 0 0 0 0 0 0 0 0 0 0 0 0 0 0 0 0 0 0 0 0 0 0 0 0 0 0 0
0 0 0 0 0 0 0 0 0 0 0 0 0 0 0 0 0 0 0 0 0 0 0 0 0 0 0 0 0 0 0 0 0 0 0 0 0 0 0 0 0 0 0
0 0 0 0 0 0 0 0 0 0 0 0 0 0 0 0 0 0 0 0 0 0 0 0 0 0 0 0 0 0 0 0 0 0 0 0 0 0 0 0 0 0 0
0 0 0 0 0 0 0 0 0 0 0 0 0 0 0 0 0 0 0 0 0 0 0 0 0 0 0 0 0 0 0 0 0 0 0 0 0 0 0 0 0 0 0
0 0 0 0 0 0 0 0 0 0 0 0 0 0 0 0 0 0 0 0 0 0 0 0 0 0 0 0 0 0 0 0 0 0 0 0 0 0 0 0 0 0 0
0 0 0 0 0 0 0 0 0 0 0 0 0 0 0 0 0 0 0 0 0 0 0 0 0 0 0 0 0 0 0 0 0 0 0 0 0 0 0 0 0 0 0
0 0 0 0 0 0 0 0 0 0 0 0 0 0 0 0 0 0 0 0 0 0 0 0 0 0 0 0 0 0 0 0 0 0 0 0 0 0 0 0 0 0 0
0 0 0 0 0 0 0 0 0 0 0 0 0 0 0 0 0 0 0 0 0 0 0 0 0 0 0 0 0 0 0 0 0 0 0 0 0 0 0 0 0 0 0
Wind_Speed
6 6 4 4 4 4 4 4 4 6 6 6 6 7 8 8 9 8 8 20 23 24 25 25 25 25 24 23 23 22 22 22 21 20 19 18 17 16 15 14 13 13 13
7 7 6 5 5 4 4 5 5 5 5 5 7 7 8 8 10 10 8 12 22 24 25 25 25 25 25 24 24 23 23 22 22 23 22 21 20 18 18 16 15 14 13
8 7 6 6 4 4 5 5 6 5 5 6 7 7 8 9 10 11 9 8 9 19 24 25 25 25 25 25 24 24 23 23 23 24 24 23 23 22 21 20 18 16 14
9 8 7 6 5 5 5 5 4 5 5 5 6 6 6 7 10 10 9 9 8 9 15 24 24 25 25 25 25 24 24 24 24 24 24 24 24 24 24 23 22 20 18
8 8 7 5 5 6 5 5 5 4 5 5 6 6 6 6 7 9 10 10 9 9 8 16 22 23 24 25 25 25 25 25 25 24 25 25 25 25 25 25 24 23 22
8 9 7 6 6 6 5 5 7 6 5 4 7 7 6 5 6 7 8 8 9 10 9 10 9 13 22 24 25 25 25 25 25 25 25 25 26 26 26 25 25 25 25
8 8 8 7 6 6 5 5 5 8 7 3 4 4 4 5 5 5 5 7 9 9 9 9 7 7 9 20 23 25 26 26 26 26 26 26 27 27 27 27 26 26 26
7 8 9 7 6 7 8 7 5 4 5 5 3 3 2 3 3 4 4 7 7 6 8 9 8 8 7 6 15 24 26 27 27 27 27 27 27 27 27 27 27 27 26
7 8 8 8 7 7 7 6 5 6 5 5 5 4 4 0 3 3 4 5 6 5 6 6 7 8 9 8 8 17 25 26 27 27 28 28 28 28 28 28 27 27 27
7 8 8 8 8 6 7 6 5 4 5 4 4 5 4 3 2 3 4 4 5 5 5 6 6 6 7 7 12 20 25 25 26 27 27 28 28 28 28 28 28 27 27
6 7 8 7 7 6 7 7 6 6 4 4 3 3 4 4 4 2 3 5 5 4 5 4 3 4 5 7 8 16 23 24 26 26 27 27 28 28 28 28 28 28 27
5 6 7 7 7 6 6 6 6 8 6 6 4 3 3 3 2 1 1 3 4 4 5 3 2 3 4 6 11 21 22 24 26 26 26 27 27 27 28 28 28 28 27
5 6 6 6 6 6 6 6 7 6 5 6 5 3 3 2 2 1 1 2 3 4 4 3 1 2 5 5 8 21 19 25 26 26 26 26 27 27 27 27 27 27 27
6 7 7 7 7 6 7 6 6 5 5 5 5 4 3 2 2 1 1 1 3 3 3 4 2 1 4 5 12 20 12 24 25 26 26 26 26 27 27 27 27 27 27
7 8 8 7 7 7 7 6 5 5 5 4 4 3 2 2 1 1 1 1 1 3 4 3 3 2 4 5 13 9 10 20 25 25 25 26 26 26 27 27 27 27 27
9 10 8 8 7 7 7 6 5 5 5 3 3 3 2 1 1 1 1 1 1 2 5 4 3 4 6 9 15 10 11 23 22 24 25 26 26 26 27 26 26 26 26
10 10 10 9 8 7 6 6 5 5 5 4 3 3 3 2 2 1 1 1 2 2 6 7 4 4 6 8 11 8 9 10 10 22 25 26 26 27 26 27 27 27 27
10 10 9 9 8 7 7 7 6 6 5 5 4 4 3 3 3 3 2 3 3 4 4 10 8 6 7 9 10 11 10 10 9 20 25 26 27 26 27 27 28 28 27
10 9 9 9 9 8 7 7 6 6 6 5 5 5 4 4 4 3 4 4 3 4 4 7 10 7 7 7 11 11 10 8 11 15 22 23 24 26 28 29 28 28 27
11 10 9 8 8 8 8 7 7 6 5 5 5 5 5 5 5 5 4 5 4 5 5 7 9 9 9 8 8 10 12 8 10 12 16 18 22 25 27 28 28 27 27
11 10 9 8 7 7 7 8 7 6 6 5 5 5 6 7 9 7 6 5 5 5 5 6 9 9 9 9 9 10 12 13 11 9 9 10 12 12 13 19 23 25 26
9 9 9 9 9 8 12 15 10 7 6 6 6 6 6 7 10 13 14 13 10 7 5 5 8 10 11 10 10 11 12 14 13 6 11 14 12 12 11 9 20 27 28
10 10 9 9 10 11 16 16 16 8 7 7 7 6 6 5 7 6 10 14 13 15 14 9 10 11 11 11 13 14 13 14 15 14 14 15 11 12 11 13 26 29 29
10 10 10 10 9 11 17 16 15 9 7 7 7 7 7 7 7 8 8 8 9 9 11 9 8 9 10 11 11 12 12 12 14 11 12 13 12 12 12 11 22 26 25
10 10 8 9 10 10 16 16 15 5 6 8 8 8 8 8 13 15 10 8 9 9 12 15 15 15 18 19 16 8 6 7 11 10 8 8 9 13 12 11 12 20 24
10 9 8 8 9 9 13 15 15 5 6 7 6 8 11 13 15 16 10 8 9 9 6 6 7 10 10 11 14 8 6 7 8 8 6 7 10 12 10 6 9 12 15
Wind_Direction
109 99 88 76 68 66 70 66 61 57 53 51 55 61 61 62 63 58 48 49 47 42 39 35 31 27 24 21 18 16 14 12 9 6 2 357 352 348 340 335 331 327 324
107 100 89 76 67 65 69 70 67 64 57 57 58 61 67 71 69 65 57 47 46 42 38 33 29 25 22 20 17 16 13 12 11 9 5 1 355 349 346 336 328 322 319
103 102 95 83 72 70 72 69 63 60 59 60 61 65 73 75 74 67 59 51 40 38 35 32 27 23 21 18 16 14 13 13 12 9 7 4 359 355 348 344 334 325 318
102 100 95 86 77 73 69 68 57 63 55 60 69 67 71 75 74 69 60 51 43 35 27 29 25 21 19 17 15 14 12 12 11 8 5 3 360 356 352 346 342 335 325
96 99 94 87 81 74 64 70 59 68 65 70 80 71 65 68 69 67 59 48 40 33 25 22 21 18 17 16 13 11 10 9 8 6 3 1 357 354 351 348 345 340 334
96 98 94 84 81 81 69 68 75 64 64 74 87 74 60 62 64 59 55 47 35 27 19 17 15 12 15 15 11 8 6 5 3 1 359 356 354 351 348 345 343 340 338
93 97 98 86 80 81 73 72 81 68 50 33 83 69 43 46 65 54 49 47 30 19 12 11 11 13 8 13 8 8 4 1 358 355 353 350 348 346 343 341 339 337 334
94 100 99 95 87 85 69 56 69 81 52 28 85 100 57 5 14 34 36 41 24 9 7 4 7 13 11 12 6 7 3 357 353 350 347 345 342 340 338 336 334 333 331
86 97 98 97 87 86 84 69 70 91 94 45 45 103 113 84 324 338 20 32 13 1 356 350 7 11 17 17 3 360 357 352 349 346 343 340 337 334 332 331 329 328 327
91 94 96 96 93 91 89 80 71 81 101 88 54 46 79 121 89 333 333 354 356 348 345 350 356 6 21 16 2 356 352 350 347 343 339 336 333 330 328 327 325 324 323
89 94 98 100 98 94 93 91 82 76 78 93 92 83 68 59 67 96 313 324 330 318 326 330 348 6 21 15 356 346 348 345 342 338 334 332 329 327 326 324 322 321 320
102 101 102 101 102 102 101 99 93 88 86 86 83 81 97 97 81 91 265 293 303 300 310 314 351 10 13 6 351 343 345 341 337 334 331 329 327 325 324 322 320 319 318
135 131 120 115 111 110 108 104 98 94 94 96 96 89 87 96 118 135 192 279 292 291 304 303 316 20 6 357 338 340 340 336 332 329 329 327 326 324 322 320 319 319 318
145 141 132 125 123 121 116 109 103 102 102 104 104 105 103 98 101 119 151 244 302 297 280 281 298 13 0 340 329 339 333 330 327 327 327 325 324 322 321 321 320 319 318
144 142 137 132 130 126 123 119 114 116 117 113 117 117 119 121 113 115 125 155 243 302 295 279 291 307 340 328 326 329 325 320 325 325 324 322 321 321 321 320 319 318 318
147 148 144 141 138 133 130 125 125 132 129 131 136 136 138 145 141 140 149 178 191 225 278 278 268 302 319 319 319 322 313 319 319 319 320 318 318 319 318 318 317 317 318
155 156 155 151 147 144 142 140 144 148 148 154 162 167 180 177 179 191 201 213 221 219 268 285 275 304 303 310 314 307 305 302 306 314 314 314 316 316 315 315 314 314 314
162 160 157 155 154 155 156 158 162 168 172 181 191 193 207 202 209 212 213 224 228 226 251 287 298 306 303 308 306 307 307 307 303 307 310 313 312 311 311 311 311 311 311
163 162 163 164 165 166 168 173 175 181 189 197 200 207 215 213 227 222 223 230 233 247 242 274 291 299 301 304 307 304 299 294 300 305 310 309 309 310 311 310 309 308 308
168 171 174 172 171 171 175 180 185 192 200 208 212 218 220 219 229 230 235 233 235 244 250 268 284 296 300 302 301 311 313 309 306 306 303 308 309 310 308 307 306 305 304
176 174 172 173 174 177 186 187 192 196 204 216 223 227 230 233 239 239 241 233 231 240 250 268 285 294 299 311 314 314 310 311 302 296 304 307 305 301 301 302 304 301 302
174 173 180 180 185 195 203 203 198 202 209 218 229 231 235 238 250 258 262 262 254 246 242 255 282 289 298 306 310 310 310 311 310 312 313 307 303 300 300 294 301 306 308
176 182 187 188 197 208 208 211 211 202 210 219 225 231 240 236 231 244 261 268 271 271 268 269 279 286 296 304 307 307 308 307 303 308 308 301 303 301 302 303 308 307 307
183 189 193 196 203 216 217 219 220 212 213 222 225 227 238 244 237 241 245 250 249 253 260 268 270 280 288 296 298 303 307 304 297 295 300 297 303 304 309 306 304 304 308
187 194 192 196 206 221 222 225 224 210 224 232 229 228 234 242 252 257 254 249 255 256 266 270 276 287 296 305 309 308 307 306 303 305 305 290 306 315 305 295 299 309 314
192 191 199 201 207 218 224 227 228 212 229 238 237 238 239 244 253 256 250 244 253 256 250 263 281 295 302 303 305 301 293 293 299 302 310 312 311 320 308 292 308 308 305